Gesamt
Thomas C Russell Fld Airport (Alexander City, AL) ALX Wetter
|
Alexander City, AL (KALX)
Klarer Himmel
Windstill |
|
28 °C |
There is no TAF data available at ALX or any nearby airports.
Kürzlicher METAR-Verlauf für ALX
| Date | Time (CDT) | Flight Rules | Wind Dir. | Speed | Type | Height AGL (ft) | Visibility | Temp (°C) | Temp (°F) | Dew Point (°C) | Dew Point (°F) | Rel. Humid. | Pressure | Density Altitude | Remarks |
|---|---|---|---|---|---|---|---|---|---|---|---|---|---|---|---|
| 06-Sep | 09:15 | VFR | Variable | 3 kt | 10 miles | 28° | 82° | 24° | 75° | 79% | 29.93 in Hg | 2.235 ft | |||
| 06-Sep | 08:55 | VFR | Variable | 1 kt | 10 miles | 28° | 82° | 25° | 77° | 84% | 29.93 in Hg | 2.235 ft | |||
| 06-Sep | 08:15 | VFR | Calm | 10 miles | 26° | 78° | 24° | 75° | 89% | 29.93 in Hg | 1.995 ft | ||||
| 06-Sep | 07:55 | VFR | 250° | 3 kt | 10 miles | 26° | 78° | 24° | 75° | 89% | 29.93 in Hg | 1.995 ft | |||
| 06-Sep | 07:35 | VFR | 200° | 3 kt | 10 miles | 25° | 77° | 24° | 75° | 94% | 29.93 in Hg | 1.875 ft | |||
| 06-Sep | 07:15 | VFR | 220° | 2 kt | 10 miles | 25° | 77° | 24° | 75° | 94% | 29.93 in Hg | 1.875 ft | |||
| 06-Sep | 06:55 | VFR | 340° | 1 kt | 10 miles | 25° | 77° | 24° | 75° | 94% | 29.92 in Hg | 1.885 ft | |||
| 06-Sep | 06:35 | VFR | 290° | 3 kt | 10 miles | 24° | 75° | 24° | 75° | 100% | 29.93 in Hg | 1.755 ft | |||
| 06-Sep | 06:15 | VFR | 320° | 4 kt | 10 miles | 24° | 75° | 24° | 75° | 100% | 29.92 in Hg | 1.765 ft | |||
| 06-Sep | 05:55 | VFR | 320° | 3 kt | 10 miles | 24° | 75° | 24° | 75° | 100% | 29.92 in Hg | 1.765 ft | |||
| 06-Sep | 05:35 | VFR | 10° | 3 kt | 10 miles | 24° | 75° | 24° | 75° | 100% | 29.93 in Hg | 1.755 ft | |||
| 06-Sep | 05:15 | VFR | Calm | 10 miles | 23° | 73° | 23° | 73° | 100% | 29.92 in Hg | 1.645 ft | ||||
| 06-Sep | 04:55 | VFR | Calm | 10 miles | 23° | 73° | 23° | 73° | 100% | 29.91 in Hg | 1.655 ft | ||||
| 06-Sep | 04:15 | VFR | 320° | 2 kt | 10 miles | 24° | 75° | 24° | 75° | 100% | 29.90 in Hg | 1.785 ft | |||
| 06-Sep | 03:55 | VFR | 280° | 2 kt | 10 miles | 24° | 75° | 24° | 75° | 100% | 29.90 in Hg | 1.785 ft | |||
| 06-Sep | 03:35 | VFR | Calm | 10 miles | 24° | 75° | 24° | 75° | 100% | 29.90 in Hg | 1.785 ft | ||||
| 06-Sep | 03:15 | VFR | 300° | 3 kt | 10 miles | 24° | 75° | 24° | 75° | 100% | 29.90 in Hg | 1.785 ft | |||
| 06-Sep | 02:55 | VFR | 220° | 3 kt | 10 miles | 24° | 75° | 24° | 75° | 100% | 29.91 in Hg | 1.775 ft | |||
| 06-Sep | 02:35 | VFR | 220° | 1 kt | 10 miles | 24° | 75° | 24° | 75° | 100% | 29.90 in Hg | 1.785 ft | |||
| 06-Sep | 02:15 | VFR | Variable | 1 kt | 10 miles | 24° | 75° | 24° | 75° | 100% | 29.90 in Hg | 1.785 ft | |||
| 06-Sep | 01:55 | VFR | 40° | 1 kt | 10 miles | 25° | 77° | 24° | 75° | 94% | 29.90 in Hg | 1.905 ft | |||
| 06-Sep | 01:35 | VFR | 20° | 3 kt | 10 miles | 25° | 77° | 24° | 75° | 94% | 29.91 in Hg | 1.895 ft | |||
| 06-Sep | 01:15 | VFR | 320° | 1 kt | 10 miles | 25° | 77° | 24° | 75° | 94% | 29.91 in Hg | 1.895 ft | |||
| 06-Sep | 00:55 | VFR | 300° | 2 kt | 10 miles | 25° | 77° | 24° | 75° | 94% | 29.92 in Hg | 1.885 ft |
Anmelden
| Ihr Browser wird nicht unterstützt. aktualisieren Sie Ihren Browser |
